Location: Te Maire Creek
(41.1333°S, 175.9167°E)
Time: 00:32:39
(UTC+00:00)

BREEZE-M TANK - Pass Details

Date: 19 May 2024
Orbit: 602 x 24678 km, 45.4° (Epoch: 18 June)

Event Time Altitude Azimuth Distance (km) Brightness Sun altitude
Exits shadow 18:44:49 - 243° (WSW) 8,008 7.5 -7.3°
Reaches altitude 10° 18:47:22 10° 244° (WSW) 7,018 7.2 -6.8°
Maximum altitude 19:01:19 47° 312° (NW) 1,558 4.4 -4.4°
Drops below altitude 10° 19:05:39 10° 28° (NNE) 2,265 6.3 -3.6°
Sets 19:07:17 0° 35° (NE) 2,968 7.2 -3.4°
